,,PA_Meas_PMT16A,,PR_Meas_QMR101_102,,RH_Meas_QMH101,,SR_Meas_QMS101,,TA_Meas_QMH101,,GenWind,,GenWind,
time,status,PA,status,PR,status,RH,status,SR,status,TA,status,DirAvg,status,SpdAvg,
2011-07-08, 00:00:04,VALID,918.751,VALID,0,VALID,93.2268,VALID,0,VALID,18.2796,VALID,16,VALID,0.924609,
2011-07-08, 00:01:04,VALID,918.784,VALID,0,VALID,93.5622,VALID,0.107441,VALID,18.2211,VALID,16,VALID,1.02383,
2011-07-08, 00:02:04,VALID,918.758,VALID,0,VALID,94.0806,VALID,0.107441,VALID,18.1626,VALID,16,VALID,0.946484,
2011-07-08, 00:03:04,VALID,918.795,VALID,0,VALID,94.2864,VALID,0,VALID,18.1041,VALID,16,VALID,0.951563,
2011-07-08, 00:04:04,VALID,918.801,VALID,0,VALID,94.5456,VALID,0,VALID,18.0457,VALID,16,VALID,1.10859,
2011-07-08, 00:05:04,VALID,918.793,VALID,0,VALID,94.7362,VALID,0,VALID,18.0067,VALID,16,VALID,1.12031,
2011-07-08, 00:06:04,VALID,918.805,VALID,0,VALID,94.9801,VALID,0,VALID,17.9065,VALID,16,VALID,1.04844,
2011-07-08, 00:07:04,VALID,918.754,VALID,0,VALID,95.1631,VALID,0,VALID,17.8897,VALID,16,VALID,1.17891,
2011-07-08, 00:08:04,VALID,918.744,VALID,0,VALID,95.3613,VALID,0,VALID,17.8508,VALID,16,VALID,0.860937,
2011-07-08, 00:09:04,VALID,918.736,VALID,0,VALID,95.529,VALID,0.107441,VALID,17.8313,VALID,16,VALID,0.890234,
2011-07-08, 00:10:04,VALID,918.695,VALID,0,VALID,95.6967,VALID,0.107441,VALID,17.8104,VALID,16,VALID,0.714063,
2011-07-08, 00:11:04,VALID,918.695,VALID,0,VALID,95.8263,VALID,0,VALID,17.8313,VALID,16,VALID,0.678906,
2011-07-08, 00:12:04,VALID,918.665,VALID,0,VALID,95.9026,VALID,0,VALID,17.8508,VALID,16,VALID,0.541406,
2011-07-08, 00:13:04,VALID,918.664,VALID,0,VALID,95.9636,VALID,0.107441,VALID,17.8702,VALID,16,VALID,0.464844,
2011-07-08, 00:14:04,VALID,918.683,VALID,0,VALID,95.9178,VALID,0,VALID,17.8897,VALID,16,VALID,0.766406,
2011-07-08, 00:15:04,VALID,918.662,VALID,0,VALID,95.895,VALID,0.107441,VALID,17.9079,VALID,16,VALID,0.460547,
2011-07-08, 00:16:04,VALID,918.649,VALID,0,VALID,95.773,VALID,0,VALID,17.9482,VALID,16,VALID,0.784375,
2011-07-08, 00:17:04,VALID,918.666,VALID,0,VALID,95.6586,VALID,0.107441,VALID,17.9663,VALID,16,VALID,1.02422,
2011-07-08, 00:18:04,VALID,918.647,VALID,0,VALID,95.4071,VALID,0,VALID,18.0262,VALID,16,VALID,1.20273,
2011-07-08, 00:19:04,VALID,918.639,VALID,0,VALID,94.7819,VALID,0,VALID,18.0262,VALID,16,VALID,1.03789,
2011-07-08, 00:20:04,VALID,918.637,VALID,0,VALID,94.2635,VALID,0,VALID,17.9845,VALID,16,VALID,0.882813,
2011-07-08, 00:21:04,VALID,918.64,VALID,0,VALID,93.8443,VALID,0,VALID,18.0262,VALID,16,VALID,0.670313,
2011-07-08, 00:22:04,VALID,918.627,VALID,0,VALID,93.6537,VALID,0,VALID,17.9872,VALID,16,VALID,0.929297,
2011-07-08, 00:23:04,VALID,918.588,VALID,0,VALID,93.8824,VALID,0,VALID,18.008,VALID,16,VALID,1.03281,
2011-07-08, 00:24:04,VALID,918.619,VALID,0,VALID,94.3931,VALID,0,VALID,18.0457,VALID,16,VALID,1.19375,
2011-07-08, 00:25:04,VALID,918.572,VALID,0,VALID,94.4541,VALID,0,VALID,18.0846,VALID,16,VALID,0.844922,
2011-07-08, 00:26:04,VALID,918.579,VALID,0,VALID,94.2712,VALID,0,VALID,18.1264,VALID,16,VALID,1.1332,
2011-07-08, 00:27:04,VALID,918.588,VALID,0,VALID,94.1492,VALID,0,VALID,18.125,VALID,16,VALID,0.923437,
2011-07-08, 00:28:04,VALID,918.593,VALID,0,VALID,93.9967,VALID,0,VALID,18.0846,VALID,16,VALID,0.883594,
2011-07-08, 00:29:04,VALID,918.594,VALID,0,VALID,93.9357,VALID,0,VALID,18.0651,VALID,17,VALID,0.784375,
2011-07-08, 00:30:04,VALID,918.613,VALID,0,VALID,94.0806,VALID,0,VALID,18.0457,VALID,17,VALID,0.654297,
2011-07-08, 00:31:04,VALID,918.589,VALID,0,VALID,94.1111,VALID,0,VALID,18.0067,VALID,17,VALID,0.914453,
2011-07-08, 00:32:04,VALID,918.546,VALID,0,VALID,94.2483,VALID,0.107441,VALID,18.0067,VALID,17,VALID,1.15195,
2011-07-08, 00:33:04,VALID,918.535,VALID,0,VALID,94.6142,VALID,0.107441,VALID,18.0262,VALID,17,VALID,1.34687,
2011-07-08, 00:34:04,VALID,918.5,VALID,0,VALID,94.6371,VALID,0,VALID,18.0053,VALID,17,VALID,1.08086,
2011-07-08, 00:35:04,VALID,918.456,VALID,0,VALID,94.6066,VALID,0.107441,VALID,18.0262,VALID,17,VALID,1.05078,
2011-07-08, 00:36:04,VALID,918.447,VALID,0,VALID,94.4999,VALID,0.107441,VALID,18.0262,VALID,18,VALID,1.26563,
2011-07-08, 00:37:04,VALID,918.446,VALID,0,VALID,94.2788,VALID,0.107441,VALID,18.0457,VALID,18,VALID,1.2707,
2011-07-08, 00:38:04,VALID,918.424,VALID,0,VALID,94.0043,VALID,0.107441,VALID,18.0651,VALID,18,VALID,0.949609,
2011-07-08, 00:39:04,VALID,918.447,VALID,0,VALID,93.5774,VALID,0,VALID,18.0262,VALID,18,VALID,0.712891,
2011-07-08, 00:40:04,VALID,918.417,VALID,0,VALID,93.4173,VALID,0,VALID,18.0067,VALID,18,VALID,1.05039,
2011-07-08, 00:41:04,VALID,918.431,VALID,0,VALID,93.2725,VALID,0,VALID,18.0275,VALID,18,VALID,0.840234,
2011-07-08, 00:42:04,VALID,918.434,VALID,0,VALID,93.1429,VALID,0,VALID,18.0262,VALID,18,VALID,1.06797,
2011-07-08, 00:43:04,VALID,918.446,VALID,0,VALID,92.8608,VALID,0.107441,VALID,18.0457,VALID,18,VALID,1.06484,
2011-07-08, 00:44:04,VALID,918.399,VALID,0,VALID,92.6855,VALID,0,VALID,18.0651,VALID,19,VALID,0.861719,
2011-07-08, 00:45:04,VALID,918.434,VALID,0,VALID,92.6245,VALID,0.107441,VALID,18.0457,VALID,19,VALID,0.823828,
2011-07-08, 00:46:04,VALID,918.412,VALID,0,VALID,92.533,VALID,0,VALID,18.0053,VALID,19,VALID,0.29375,
2011-07-08, 00:47:04,VALID,918.385,VALID,0,VALID,92.6474,VALID,0,VALID,18.0262,VALID,19,VALID,0.857422,
2011-07-08, 00:48:04,VALID,918.415,VALID,0,VALID,92.9371,VALID,0,VALID,17.9886,VALID,19,VALID,0.865234,
2011-07-08, 00:49:04,VALID,918.43,VALID,0,VALID,93.2039,VALID,0.107441,VALID,17.9482,VALID,19,VALID,0.901563,
2011-07-08, 00:50:04,VALID,918.422,VALID,0,VALID,93.3564,VALID,0,VALID,17.9301,VALID,19,VALID,0.826953,
2011-07-08, 00:51:04,VALID,918.416,VALID,0,VALID,93.3182,VALID,0,VALID,17.8702,VALID,19,VALID,0.914844,
2011-07-08, 00:52:04,VALID,918.408,VALID,0,VALID,93.4631,VALID,0,VALID,17.8508,VALID,20,VALID,0.910156,
2011-07-08, 00:53:04,VALID,918.387,VALID,0,VALID,93.3792,VALID,0,VALID,17.8716,VALID,124,VALID,1.14883,
2011-07-08, 00:54:04,VALID,918.364,VALID,0,VALID,93.3411,VALID,0,VALID,17.8716,VALID,154,VALID,1.17734,
2011-07-08, 00:55:04,VALID,918.344,VALID,0,VALID,93.0895,VALID,0,VALID,17.8508,VALID,154,VALID,0.897266,
2011-07-08, 00:56:04,VALID,918.322,VALID,0,VALID,92.9599,VALID,0,VALID,17.8299,VALID,154,VALID,0.776953,
2011-07-08, 00:57:04,VALID,918.295,VALID,0,VALID,92.6779,VALID,0,VALID,17.8702,VALID,154,VALID,0.604297,
2011-07-08, 00:58:04,VALID,918.306,VALID,0,VALID,92.3882,VALID,0.107441,VALID,17.9314,VALID,158,VALID,0.827734,
2011-07-08, 00:59:04,VALID,918.3,VALID,0,VALID,92.1976,VALID,0,VALID,17.8689,VALID,148,VALID,1.03164,
2011-07-08, 01:00:04,VALID,918.26,VALID,0,VALID,92.068,VALID,0,VALID,17.9106,VALID,154,VALID,0.766016,
2011-07-08, 01:01:04,VALID,918.248,VALID,0,VALID,92.0985,VALID,0,VALID,17.8494,VALID,154,VALID,1.05508,
2011-07-08, 01:02:04,VALID,918.244,VALID,0,VALID,92.1976,VALID,0,VALID,17.8911,VALID,154,VALID,0.944531,
2011-07-08, 01:03:04,VALID,918.222,VALID,0,VALID,92.3348,VALID,0,VALID,17.8313,VALID,154,VALID,0.755469,
2011-07-08, 01:04:04,VALID,918.194,VALID,0,VALID,92.6702,VALID,0,VALID,17.7728,VALID,154,VALID,1.00703,
2011-07-08, 01:05:04,VALID,918.159,VALID,0,VALID,93.0209,VALID,0,VALID,17.7143,VALID,154,VALID,0.826563,
2011-07-08, 01:06:04,VALID,918.14,VALID,0,VALID,92.9447,VALID,0,VALID,17.6754,VALID,154,VALID,0.629297,
2011-07-08, 01:07:04,VALID,918.106,VALID,0,VALID,93.12,VALID,0,VALID,17.6364,VALID,154,VALID,1.08594,
2011-07-08, 01:08:04,VALID,918.097,VALID,0,VALID,93.3564,VALID,0,VALID,17.6169,VALID,97,VALID,0.402344,
2011-07-08, 01:09:04,VALID,918.094,VALID,0,VALID,93.4555,VALID,0,VALID,17.6169,VALID,164,VALID,0.763672,
2011-07-08, 01:10:04,VALID,918.088,VALID,0,VALID,93.5241,VALID,0,VALID,17.6559,VALID,146,VALID,1.27305,
2011-07-08, 01:11:04,VALID,918.062,VALID,0,VALID,93.3716,VALID,0,VALID,17.6364,VALID,142,VALID,0.941016,
2011-07-08, 01:12:04,VALID,918.068,VALID,0,VALID,93.6308,VALID,0,VALID,17.6754,VALID,157,VALID,0.936328,
2011-07-08, 01:13:04,VALID,918.048,VALID,0,VALID,93.5851,VALID,0,VALID,17.7143,VALID,155,VALID,1.31406,
2011-07-08, 01:14:04,VALID,918.062,VALID,0,VALID,93.4783,VALID,0,VALID,17.7533,VALID,164,VALID,0.971484,
2011-07-08, 01:15:04,VALID,918.05,VALID,0,VALID,93.2191,VALID,0,VALID,17.7728,VALID,153,VALID,0.974609,
2011-07-08, 01:16:04,VALID,918.035,VALID,0,VALID,93.0514,VALID,0,VALID,17.7728,VALID,160,VALID,1.20547,
2011-07-08, 01:17:04,VALID,917.989,VALID,0,VALID,92.9981,VALID,0,VALID,17.7728,VALID,147,VALID,1.22422,
2011-07-08, 01:18:04,VALID,917.98,VALID,0,VALID,92.9142,VALID,0,VALID,17.7923,VALID,140,VALID,0.974219,
2011-07-08, 01:19:04,VALID,917.933,VALID,0,VALID,92.6626,VALID,0,VALID,17.7923,VALID,129,VALID,1.10078,
2011-07-08, 01:20:04,VALID,917.924,VALID,0,VALID,92.2891,VALID,0,VALID,17.7923,VALID,151,VALID,0.875781,
2011-07-08, 01:21:04,VALID,917.946,VALID,0,VALID,91.7631,VALID,0,VALID,17.8326,VALID,136,VALID,0.721484,
2011-07-08, 01:22:04,VALID,917.936,VALID,0,VALID,91.42,VALID,0,VALID,17.8118,VALID,135,VALID,0.896094,
2011-07-08, 01:23:04,VALID,917.947,VALID,0,VALID,91.0388,VALID,0,VALID,17.8521,VALID,135,VALID,0.664063,
2011-07-08, 01:24:04,VALID,917.961,VALID,0,VALID,90.307,VALID,0,VALID,17.9092,VALID,149,VALID,1.34805,
2011-07-08, 01:25:04,VALID,917.968,VALID,0,VALID,89.5446,VALID,0,VALID,17.9482,VALID,156,VALID,1.12227,
2011-07-08, 01:26:04,VALID,917.984,VALID,0,VALID,89.0186,VALID,0,VALID,17.9872,VALID,158,VALID,1.53398,
2011-07-08, 01:27:04,VALID,917.983,VALID,0,VALID,88.4164,VALID,0,VALID,18.0651,VALID,156,VALID,1.19492,
2011-07-08, 01:28:04,VALID,918.007,VALID,0,VALID,88.241,VALID,0,VALID,18.1041,VALID,161,VALID,1.36602,
2011-07-08, 01:29:04,VALID,917.981,VALID,0,VALID,87.8904,VALID,0,VALID,18.0846,VALID,163,VALID,1.49609,
2011-07-08, 01:30:04,VALID,917.96,VALID,0,VALID,87.5473,VALID,0,VALID,18.1236,VALID,159,VALID,1.23633,
2011-07-08, 01:31:04,VALID,917.949,VALID,0,VALID,87.311,VALID,0,VALID,18.1041,VALID,157,VALID,0.857422,
2011-07-08, 01:32:04,VALID,917.955,VALID,0,VALID,87.2576,VALID,0,VALID,18.1236,VALID,149,VALID,1.40117,
2011-07-08, 01:33:04,VALID,917.927,VALID,0,VALID,87.4406,VALID,0,VALID,18.164,VALID,164,VALID,0.779297,
2011-07-08, 01:34:04,VALID,917.925,VALID,0,VALID,87.25,VALID,0,VALID,18.1431,VALID,158,VALID,1.13203,
2011-07-08, 01:35:04,VALID,917.94,VALID,0,VALID,87.6769,VALID,0,VALID,18.1626,VALID,158,VALID,1.0125,
2011-07-08, 01:36:04,VALID,917.935,VALID,0,VALID,87.8751,VALID,0,VALID,18.164,VALID,158,VALID,0.666016,
2011-07-08, 01:37:04,VALID,917.946,VALID,0,VALID,88.2182,VALID,0,VALID,18.1236,VALID,158,VALID,1.06367,
2011-07-08, 01:38:04,VALID,917.932,VALID,0,VALID,88.1953,VALID,0,VALID,18.1041,VALID,158,VALID,0.874219,
2011-07-08, 01:39:04,VALID,917.915,VALID,0,VALID,88.5993,VALID,0,VALID,18.0443,VALID,154,VALID,1.36289,
2011-07-08, 01:40:04,VALID,917.95,VALID,0,VALID,88.7518,VALID,0.107441,VALID,18.0457,VALID,132,VALID,1.0625,
2011-07-08, 01:41:04,VALID,917.934,VALID,0,VALID,89.255,VALID,0.107441,VALID,17.9872,VALID,146,VALID,1.00664,
2011-07-08, 01:42:04,VALID,917.947,VALID,0,VALID,89.7657,VALID,0,VALID,17.9482,VALID,122,VALID,1.10156,
2011-07-08, 01:43:04,VALID,917.923,VALID,0,VALID,90.0554,VALID,0,VALID,17.9496,VALID,128,VALID,1.10391,
2011-07-08, 01:44:04,VALID,917.904,VALID,0,VALID,89.9563,VALID,0,VALID,17.9092,VALID,128,VALID,0.982813,
2011-07-08, 01:45:04,VALID,917.911,VALID,0,VALID,89.8191,VALID,0,VALID,17.9092,VALID,116,VALID,1.16445,
2011-07-08, 01:46:04,VALID,917.919,VALID,0,VALID,89.9944,VALID,0,VALID,17.8702,VALID,140,VALID,1.2625,
2011-07-08, 01:47:04,VALID,917.913,VALID,0,VALID,89.8572,VALID,0,VALID,17.8702,VALID,138,VALID,1.21797,
2011-07-08, 01:48:04,VALID,917.894,VALID,0,VALID,89.4227,VALID,0,VALID,17.8702,VALID,146,VALID,1.21992,
2011-07-08, 01:49:04,VALID,917.88,VALID,0,VALID,89.2092,VALID,0,VALID,17.8702,VALID,178,VALID,1.14727,
2011-07-08, 01:50:04,VALID,917.896,VALID,0,VALID,89.4989,VALID,0,VALID,17.8716,VALID,167,VALID,1.87891,
2011-07-08, 01:51:04,VALID,917.892,VALID,0,VALID,89.6209,VALID,0,VALID,17.8118,VALID,170,VALID,1.29062,
2011-07-08, 01:52:04,VALID,917.885,VALID,0,VALID,89.9334,VALID,0,VALID,17.7728,VALID,168,VALID,1.34961,
2011-07-08, 01:53:04,VALID,917.877,VALID,0,VALID,90.3299,VALID,0,VALID,17.7533,VALID,161,VALID,1.60664,
2011-07-08, 01:54:04,VALID,917.888,VALID,0,VALID,90.5052,VALID,0,VALID,17.7338,VALID,149,VALID,1.41211,
2011-07-08, 01:55:04,VALID,917.883,VALID,0,VALID,90.6043,VALID,0,VALID,17.7143,VALID,150,VALID,1.26367,
2011-07-08, 01:56:04,VALID,917.859,VALID,0,VALID,90.7949,VALID,0,VALID,17.7143,VALID,144,VALID,1.1418,
2011-07-08, 01:57:04,VALID,917.834,VALID,0,VALID,90.9931,VALID,0,VALID,17.6948,VALID,142,VALID,1.42734,
2011-07-08, 01:58:04,VALID,917.821,VALID,0,VALID,90.9169,VALID,0,VALID,17.7157,VALID,143,VALID,0.8625,
2011-07-08, 01:59:04,VALID,917.846,VALID,0,VALID,91.3057,VALID,0,VALID,17.6948,VALID,149,VALID,0.910547,
2011-07-08, 02:00:04,VALID,917.808,VALID,0,VALID,91.7554,VALID,0,VALID,17.7533,VALID,159,VALID,1.89141,
2011-07-08, 02:01:04,VALID,917.807,VALID,0,VALID,91.5953,VALID,0,VALID,17.7728,VALID,162,VALID,1.55938,
2011-07-08, 02:02:04,VALID,917.783,VALID,0,VALID,91.4886,VALID,0,VALID,17.7728,VALID,171,VALID,1.56172,
2011-07-08, 02:03:04,VALID,917.767,VALID,0,VALID,91.3133,VALID,0,VALID,17.7728,VALID,162,VALID,1.23477,
2011-07-08, 02:04:04,VALID,917.755,VALID,0,VALID,91.6487,VALID,0,VALID,17.7936,VALID,173,VALID,1.19727,
2011-07-08, 02:05:04,VALID,917.763,VALID,0,VALID,91.5953,VALID,0,VALID,17.7728,VALID,174,VALID,1.72539,
2011-07-08, 02:06:04,VALID,917.763,VALID,0,VALID,91.7326,VALID,0,VALID,17.8118,VALID,156,VALID,1.19102,
2011-07-08, 02:07:04,VALID,917.747,VALID,0,VALID,91.3666,VALID,0,VALID,17.7909,VALID,151,VALID,0.771094,
2011-07-08, 02:08:04,VALID,917.747,VALID,0,VALID,91.2675,VALID,0.107441,VALID,17.8118,VALID,151,VALID,1.08594,
2011-07-08, 02:09:04,VALID,917.781,VALID,0,VALID,91.1837,VALID,0,VALID,17.8326,VALID,147,VALID,0.982422,
2011-07-08, 02:10:04,VALID,917.759,VALID,0,VALID,91.0388,VALID,0,VALID,17.7923,VALID,155,VALID,0.819922,
2011-07-08, 02:11:04,VALID,917.776,VALID,0,VALID,91.0388,VALID,0,VALID,17.7741,VALID,140,VALID,0.928906,
2011-07-08, 02:12:04,VALID,917.776,VALID,0,VALID,91.1379,VALID,0,VALID,17.7338,VALID,127,VALID,0.533203,
2011-07-08, 02:13:04,VALID,917.792,VALID,0,VALID,91.6335,VALID,0,VALID,17.6948,VALID,135,VALID,0.716797,
2011-07-08, 02:14:04,VALID,917.796,VALID,0,VALID,91.9689,VALID,0,VALID,17.6754,VALID,135,VALID,0.833594,
2011-07-08, 02:15:04,VALID,917.794,VALID,0,VALID,92.0451,VALID,0,VALID,17.6559,VALID,138,VALID,0.541016,
2011-07-08, 02:16:04,VALID,917.796,VALID,0,VALID,91.9918,VALID,0,VALID,17.6559,VALID,152,VALID,0.905078,
2011-07-08, 02:17:04,VALID,917.767,VALID,0,VALID,91.8774,VALID,0,VALID,17.6364,VALID,132,VALID,0.631641,
2011-07-08, 02:18:04,VALID,917.768,VALID,0,VALID,91.8164,VALID,0,VALID,17.6169,VALID,157,VALID,0.766016,
2011-07-08, 02:19:04,VALID,917.782,VALID,0,VALID,91.6716,VALID,0,VALID,17.6364,VALID,157,VALID,1.10977,
2011-07-08, 02:20:04,VALID,917.764,VALID,0,VALID,91.5039,VALID,0,VALID,17.6559,VALID,160,VALID,1.19219,
2011-07-08, 02:21:04,VALID,917.756,VALID,0,VALID,91.2142,VALID,0,VALID,17.6559,VALID,178,VALID,0.768359,
2011-07-08, 02:22:04,VALID,917.754,VALID,0,VALID,91.077,VALID,0,VALID,17.6948,VALID,183,VALID,0.792969,
2011-07-08, 02:23:04,VALID,917.757,VALID,0,VALID,90.7873,VALID,0,VALID,17.6948,VALID,115,VALID,0.642969,
2011-07-08, 02:24:04,VALID,917.732,VALID,0,VALID,90.7644,VALID,0,VALID,17.6754,VALID,162,VALID,0.296875,
2011-07-08, 02:25:04,VALID,917.744,VALID,0,VALID,90.5357,VALID,0,VALID,17.7157,VALID,134,VALID,0.700391,
2011-07-08, 02:26:04,VALID,917.725,VALID,0,VALID,90.5586,VALID,0,VALID,17.6948,VALID,139,VALID,0.812891,
2011-07-08, 02:27:04,VALID,917.702,VALID,0,VALID,90.4213,VALID,0,VALID,17.6948,VALID,136,VALID,1.1707,
2011-07-08, 02:28:04,VALID,917.722,VALID,0,VALID,90.3222,VALID,0,VALID,17.6559,VALID,152,VALID,0.758203,
2011-07-08, 02:29:04,VALID,917.705,VALID,0,VALID,90.3375,VALID,0,VALID,17.7352,VALID,153,VALID,1.10117,
2011-07-08, 02:30:04,VALID,917.684,VALID,0,VALID,90.1012,VALID,0,VALID,17.7338,VALID,149,VALID,0.484766,
2011-07-08, 02:31:04,VALID,917.68,VALID,0,VALID,89.7886,VALID,0,VALID,17.7533,VALID,149,VALID,0.764844,
2011-07-08, 02:32:04,VALID,917.678,VALID,0,VALID,89.6666,VALID,0.107441,VALID,17.7533,VALID,149,VALID,0.353906,
2011-07-08, 02:33:04,VALID,917.63,VALID,0,VALID,89.8725,VALID,0,VALID,17.7157,VALID,125,VALID,0.658594,
2011-07-08, 02:34:04,VALID,917.613,VALID,0,VALID,90.1164,VALID,0,VALID,17.6364,VALID,125,VALID,0.826563,
2011-07-08, 02:35:04,VALID,917.614,VALID,0,VALID,90.0783,VALID,0,VALID,17.6182,VALID,115,VALID,0.921484,
2011-07-08, 02:36:04,VALID,917.608,VALID,0,VALID,89.7581,VALID,0,VALID,17.5779,VALID,138,VALID,0.997656,
2011-07-08, 02:37:04,VALID,917.559,VALID,0,VALID,89.6666,VALID,0,VALID,17.5987,VALID,138,VALID,0.808203,
2011-07-08, 02:38:04,VALID,917.564,VALID,0,VALID,89.4532,VALID,0,VALID,17.5974,VALID,156,VALID,0.741797,
2011-07-08, 02:39:04,VALID,917.568,VALID,0,VALID,89.4455,VALID,0,VALID,17.5792,VALID,106,VALID,0.799609,
2011-07-08, 02:40:04,VALID,917.556,VALID,0,VALID,89.7124,VALID,0.107441,VALID,17.5389,VALID,139,VALID,1.06172,
2011-07-08, 02:41:04,VALID,917.574,VALID,0,VALID,89.7657,VALID,0,VALID,17.5194,VALID,139,VALID,0.776172,
2011-07-08, 02:42:04,VALID,917.576,VALID,0,VALID,89.8267,VALID,0,VALID,17.4415,VALID,106,VALID,0.594531,
2011-07-08, 02:43:04,VALID,917.55,VALID,0,VALID,90.5357,VALID,0,VALID,17.422,VALID,109,VALID,0.928516,
2011-07-08, 02:44:04,VALID,917.575,VALID,0,VALID,90.6348,VALID,0,VALID,17.4233,VALID,103,VALID,0.902344,
2011-07-08, 02:45:04,VALID,917.541,VALID,0,VALID,90.7644,VALID,0,VALID,17.383,VALID,120,VALID,0.932813,
2011-07-08, 02:46:04,VALID,917.538,VALID,0,VALID,91.0465,VALID,0,VALID,17.3635,VALID,108,VALID,1.0375,
2011-07-08, 02:47:04,VALID,917.514,VALID,0,VALID,90.9626,VALID,0,VALID,17.383,VALID,122,VALID,0.996484,
2011-07-08, 02:48:04,VALID,917.489,VALID,0,VALID,90.9473,VALID,0,VALID,17.3441,VALID,107,VALID,0.670313,
2011-07-08, 02:49:04,VALID,917.489,VALID,0,VALID,91.2142,VALID,0,VALID,17.3454,VALID,114,VALID,0.926562,
2011-07-08, 02:50:04,VALID,917.487,VALID,0,VALID,91.3285,VALID,0.107441,VALID,17.2661,VALID,114,VALID,0.816797,
2011-07-08, 02:51:04,VALID,917.475,VALID,0,VALID,91.5496,VALID,0,VALID,17.2271,VALID,114,VALID,0.891797,
2011-07-08, 02:52:04,VALID,917.481,VALID,0,VALID,91.7859,VALID,0,VALID,17.1882,VALID,117,VALID,0.919141,
2011-07-08, 02:53:04,VALID,917.468,VALID,0,VALID,91.9765,VALID,0,VALID,17.1687,VALID,108,VALID,1.03477,
2011-07-08, 02:54:04,VALID,917.459,VALID,0,VALID,92.2281,VALID,0,VALID,17.1687,VALID,108,VALID,0.881641,
2011-07-08, 02:55:04,VALID,917.453,VALID,0,VALID,92.2128,VALID,0,VALID,17.1492,VALID,127,VALID,0.811328,
2011-07-08, 02:56:04,VALID,917.469,VALID,0,VALID,92.2738,VALID,0,VALID,17.1492,VALID,137,VALID,0.772266,
2011-07-08, 02:57:04,VALID,917.447,VALID,0,VALID,92.3043,VALID,0,VALID,17.17,VALID,130,VALID,0.734375,
2011-07-08, 02:58:04,VALID,917.426,VALID,0,VALID,91.9841,VALID,0,VALID,17.1297,VALID,130,VALID,0.693359,
2011-07-08, 02:59:04,VALID,917.404,VALID,0,VALID,92.5178,VALID,0,VALID,17.1505,VALID,136,VALID,0.874609,
2011-07-08, 03:00:04,VALID,917.404,VALID,0,VALID,92.6855,VALID,0,VALID,17.1492,VALID,136,VALID,0.738672,
2011-07-08, 03:01:04,VALID,917.386,VALID,0,VALID,92.9523,VALID,0,VALID,17.1297,VALID,136,VALID,1.1543,
2011-07-08, 03:02:04,VALID,917.368,VALID,0,VALID,92.8761,VALID,0,VALID,17.1102,VALID,136,VALID,0.796484,
2011-07-08, 03:03:04,VALID,917.399,VALID,0,VALID,92.9904,VALID,0.107441,VALID,17.1297,VALID,136,VALID,0.721484,
2011-07-08, 03:04:04,VALID,917.396,VALID,0,VALID,93.0057,VALID,0,VALID,17.1297,VALID,136,VALID,0.967578,
2011-07-08, 03:05:04,VALID,917.373,VALID,0,VALID,92.8761,VALID,0,VALID,17.1505,VALID,136,VALID,0.615625,
2011-07-08, 03:06:04,VALID,917.35,VALID,0,VALID,92.8151,VALID,0,VALID,17.1492,VALID,136,VALID,0.552734,
2011-07-08, 03:07:04,VALID,917.343,VALID,0,VALID,92.7998,VALID,0,VALID,17.1492,VALID,136,VALID,1.08125,
2011-07-08, 03:08:04,VALID,917.324,VALID,0,VALID,92.6626,VALID,0,VALID,17.1492,VALID,133,VALID,0.951953,
2011-07-08, 03:09:04,VALID,917.306,VALID,0,VALID,92.5483,VALID,0,VALID,17.1882,VALID,135,VALID,0.610937,
2011-07-08, 03:10:04,VALID,917.303,VALID,0,VALID,92.3958,VALID,0,VALID,17.1882,VALID,135,VALID,0.789453,
2011-07-08, 03:11:04,VALID,917.287,VALID,0,VALID,91.946,VALID,0,VALID,17.2077,VALID,134,VALID,0.390625,
2011-07-08, 03:12:04,VALID,917.302,VALID,0,VALID,91.9384,VALID,0,VALID,17.2466,VALID,134,VALID,1.22422,
2011-07-08, 03:13:04,VALID,917.324,VALID,0,VALID,91.6487,VALID,0,VALID,17.3051,VALID,134,VALID,0.997656,
2011-07-08, 03:14:04,VALID,917.282,VALID,0,VALID,91.359,VALID,0,VALID,17.3441,VALID,134,VALID,0.785937,
2011-07-08, 03:15:04,VALID,917.27,VALID,0,VALID,91.0007,VALID,0,VALID,17.4233,VALID,157,VALID,1.59844,
2011-07-08, 03:16:04,VALID,917.26,VALID,0,VALID,90.5052,VALID,0,VALID,17.461,VALID,165,VALID,1.28047,
2011-07-08, 03:17:04,VALID,917.239,VALID,0,VALID,90.2841,VALID,0,VALID,17.4818,VALID,172,VALID,1.83477,
2011-07-08, 03:18:04,VALID,917.227,VALID,0,VALID,90.2155,VALID,0.107441,VALID,17.4805,VALID,170,VALID,1.57383,
2011-07-08, 03:19:04,VALID,917.194,VALID,0,VALID,90.2841,VALID,0,VALID,17.461,VALID,165,VALID,1.82734,
2011-07-08, 03:20:04,VALID,917.133,VALID,0,VALID,90.4671,VALID,0,VALID,17.4623,VALID,172,VALID,0.998828,
2011-07-08, 03:21:04,VALID,917.181,VALID,0,VALID,90.5509,VALID,0,VALID,17.422,VALID,174,VALID,1.90352,
2011-07-08, 03:22:04,VALID,917.174,VALID,0,VALID,90.4899,VALID,0,VALID,17.4025,VALID,185,VALID,1.1125,
2011-07-08, 03:23:04,VALID,917.132,VALID,0,VALID,90.4518,VALID,0,VALID,17.383,VALID,185,VALID,1.01992,
2011-07-08, 03:24:04,VALID,917.165,VALID,0,VALID,90.4061,VALID,0.107441,VALID,17.383,VALID,206,VALID,0.610547,
2011-07-08, 03:25:04,VALID,917.159,VALID,0,VALID,90.2231,VALID,0,VALID,17.3635,VALID,172,VALID,1.44492,
2011-07-08, 03:26:04,VALID,917.159,VALID,0,VALID,89.9792,VALID,0,VALID,17.383,VALID,174,VALID,0.813281,
2011-07-08, 03:27:04,VALID,917.149,VALID,0,VALID,89.7886,VALID,0,VALID,17.3635,VALID,174,VALID,0.771875,
2011-07-08, 03:28:04,VALID,917.139,VALID,0,VALID,89.6971,VALID,0,VALID,17.3259,VALID,174,VALID,0.775,
2011-07-08, 03:29:04,VALID,917.153,VALID,0,VALID,89.8191,VALID,0.107441,VALID,17.2661,VALID,174,VALID,0.360938,
2011-07-08, 03:30:04,VALID,917.143,VALID,0,VALID,89.6895,VALID,0,VALID,17.2479,VALID,174,VALID,0.76875,
2011-07-08, 03:31:04,VALID,917.139,VALID,0,VALID,89.5446,VALID,0.107441,VALID,17.2271,VALID,160,VALID,0.496094,
2011-07-08, 03:32:04,VALID,917.145,VALID,0,VALID,89.1559,VALID,0,VALID,17.2271,VALID,160,VALID,0.609766,
2011-07-08, 03:33:04,VALID,917.169,VALID,0,VALID,88.7366,VALID,0,VALID,17.2661,VALID,160,VALID,1.13047,
2011-07-08, 03:34:04,VALID,917.155,VALID,0,VALID,88.424,VALID,0,VALID,17.3051,VALID,160,VALID,0.862891,
2011-07-08, 03:35:04,VALID,917.189,VALID,0,VALID,88.4088,VALID,0,VALID,17.2856,VALID,160,VALID,0.837891,
2011-07-08, 03:36:04,VALID,917.143,VALID,0,VALID,87.8141,VALID,0,VALID,17.3441,VALID,160,VALID,0.688281,
2011-07-08, 03:37:04,VALID,917.172,VALID,0,VALID,87.6083,VALID,0,VALID,17.3441,VALID,160,VALID,1.06602,
2011-07-08, 03:38:04,VALID,917.18,VALID,0,VALID,87.7608,VALID,0,VALID,17.3259,VALID,157,VALID,1.44805,
2011-07-08, 03:39:04,VALID,917.189,VALID,0,VALID,87.9132,VALID,0,VALID,17.2661,VALID,153,VALID,0.824219,
2011-07-08, 03:40:04,VALID,917.178,VALID,0,VALID,88.1038,VALID,0,VALID,17.2271,VALID,131,VALID,0.925781,
2011-07-08, 03:41:04,VALID,917.183,VALID,0,VALID,88.3554,VALID,0,VALID,17.1882,VALID,114,VALID,0.9625,
2011-07-08, 03:42:04,VALID,917.163,VALID,0,VALID,88.5002,VALID,0,VALID,17.1297,VALID,114,VALID,1.07227,
2011-07-08, 03:43:04,VALID,917.193,VALID,0,VALID,88.8128,VALID,0,VALID,17.0726,VALID,114,VALID,1.31172,